CZ-6A DEB, 54926

Orbit data source: Space-Track

CZ-6A DEB, 54926 is space debris in SSO originally from a launch on Fri, 11 Nov 2022 UTC launched from the Taiyaun Space Center, China (TSC). Debris objects in space refer to the collection of defunct objects orbiting the Earth. Examples of debris include non-operational satellites, rocket bodies, and fragments generated from explosions, collisions, or faulty payload assembly.

Loading next visibility...
Identifier
54926, 2022-151RP
Orbit
SSO
Country
Flag of CNCN / PRC
Related business
Manufacturer
SAST
Mission
Spacecraft
Bus & Motor
Unknown
Mass
Unknown
Launch date (UTC)
2022-11-11 (3 years ago)
Launch vehicle
Unknown
Launch site
Taiyaun Space Center, China (TSC)
Object type
Payload
Rocket body
Debris
Shape & HBR
Unknown shape, 0.1 m
Radar Cross Section
Small (<0.1 m²)

Expand to show TLE details & history
Last TLE update: 16 hours ago

TLE from 16 hours ago
0 CZ-6A DEB
1 54926U 22151RP  25352.95028719  .00000637  00000-0  39335-3 0  9997
2 54926  98.8291 341.3035 0063901 138.8890 221.7120 14.07889250158665
Epoch: 2025-12-18T22:48Z
TLE epoch observation values (Epoch: 2025-12-18T22:48:24.813Z)
Latitude
0.00004°
Longitude
-88.59834°
Altitude
904.194 km
Speed
7.382 km/s
True Right ascension
22h 45m 12s
True Declination
0° 00' 00"
Sunlit
Object was in daylight at epoch
Visualization orbit readout
Latitude
Unknown
Longitude
Unknown
Altitude
Unknown
Speed
Unknown
Apparent Right ascension
Unknown
Apparent Declination
Unknown
Sunlit
N/A
Visualization observer readout
Local Sidereal Time
13:47:11
Azimuth
Unknown
Elevation
Unknown
Doppler factor
Unknown
Orbital elements
Apogee altitude
910.061 km
Perigee altitude
817.507 km
Semi-major axis
7,241.921 km
Eccentricity
0.00639
Inclination
98.8291°
RAAN
341.3035°
Arg. of periapsis
138.889°
True anomaly
221.22766°
Mean anomaly
221.712°
Eccentric anomaly
221.46954°
Mean motion
3.52178 °/min
Orbital period
102.22 mins
BSTAR
0.00039335
Loading maneuver chart data...
Computing Atmospheric mass density...
Loading historical data...
Loading historical data...
Loading historical data...
Loading historical data...
Loading historical data...
Loading historical data...
Loading historical data...

Documentation

Showing up to 5 results
|